Location: Crescent
(42.8242°N, 73.7329°W)
Time: 18:35:24
(UTC+00:00)

Explorer 7 - Pass Details

Date: 24 February 2026
Orbit: 430 x 541 km, 50.2° (Epoch: 10 March)

Event Time Altitude Azimuth Distance (km) Brightness Sun altitude
Rises 21:53:03 0° 301° (WNW) 2,466 10.8 7.1°
Reaches altitude 10° 21:55:14 10° 308° (NW) 1,609 9.7 6.8°
Maximum altitude 21:58:43 43° 21° (NNE) 679 7.1 6.2°
Drops below altitude 10° 22:02:19 10° 94° (E) 1,669 8.7 5.5°
Sets 22:04:37 0° 102° (ESE) 2,570 9.7 5.1°
